Barbacena, Brazil
Current Conditions -  °F | °C
As of 12:00 PM on Tuesday 21 Oct 2014 (Local Time) from SBBQ Reporting Station
Light Rain Light Rain  
Wind Chill: 63°   Ceiling: 500
Heat Index: 63°   Visibility: 1.2mi
Dew Point: 59°   Wind: 7mph
Humidity: 88%   Direction: 140°SE
Pressure: 30.24"   Gusts: NA
Location:  21.22°S, 43.77°W
Report Text: SBBQ 211400Z 14006KT 2000 -RA BKN005 17/15 Q1024
Loading
Personal Weather Stations






























Interactive Weather Map
Tropical Storm Tracking
New forecast layout! Learn more

10-Day Weather Forecast

Advertisements
Track Severe Weather on mobile